GW2631 Weather Reports


Display with metric or nautical units.
time (UTC)temp
F
wind
direction
speed
MPH
gust
MPH
rain 1hr
in
rain 24hr
in
rain mn
in
humidity
%
barometer
mb
20260510120531 56 219 0.0 0.0 0.00 0.00 0.00 91 1016.9
20260510120027 56 206 0.0 0.0 0.00 0.00 0.00 91 1017.0
20260510115524 55 206 0.0 0.0 0.00 0.00 0.00 91 1016.6
20260510115021 55 206 0.0 0.0 0.00 0.00 0.00 91 1016.7
20260510114517 54 206 0.0 0.0 0.00 0.00 0.00 91 1016.9
20260510114013 54 205 0.0 1.0 0.00 0.00 0.00 91 1016.7
20260510113508 54 210 0.0 0.0 0.00 0.00 0.00 92 1016.7
20260510113006 54 211 0.0 0.0 0.00 0.00 0.00 92 1016.7
20260510112502 55 206 1.0 1.0 0.00 0.00 0.00 91 1016.7
20260510111958 55 198 0.0 0.0 0.00 0.00 0.00 92 1016.4
20260510111454 54 212 0.0 0.0 0.00 0.00 0.00 91 1016.3
20260510110951 54 219 0.0 0.0 0.00 0.00 0.00 91 1016.1
20260510110447 55 225 0.0 0.0 0.00 0.00 0.00 90 1016.4
20260510105938 54 212 0.0 0.0 0.00 0.00 0.00 90 1016.0
20260510105433 55 215 0.0 0.0 0.00 0.00 0.00 90 1016.0
20260510104929 55 215 0.0 0.0 0.00 0.00 0.00 90 1015.9
20260510104425 55 215 0.0 0.0 0.00 0.00 0.00 89 1015.8
20260510103922 55 215 0.0 0.0 0.00 0.00 0.00 89 1015.8
20260510103420 55 215 0.0 0.0 0.00 0.00 0.00 89 1015.7
20260510102919 55 226 0.0 0.0 0.00 0.00 0.00 89 1015.6
20260510102416 55 226 0.0 1.0 0.00 0.00 0.00 89 1015.8
20260510101914 56 226 0.0 0.0 0.00 0.00 0.00 89 1015.6
20260510101412 55 250 1.0 1.0 0.00 0.00 0.00 88 1015.5
20260510100909 55 217 0.0 1.0 0.00 0.00 0.00 88 1015.4
20260510100406 55 216 0.0 0.0 0.00 0.00 0.00 88 1015.4
20260510095902 55 207 1.0 1.0 0.00 0.00 0.00 87 1015.3
20260510095357 55 215 1.0 1.0 0.00 0.00 0.00 88 1015.4
20260510094856 55 205 1.0 1.0 0.00 0.00 0.00 89 1015.4
20260510094352 55 220 1.0 1.0 0.00 0.00 0.00 89 1015.4
20260510093848 55 161 1.0 2.0 0.00 0.00 0.00 89 1015.3
20260510093344 54 244 1.0 1.0 0.00 0.00 0.00 89 1015.1
20260510092840 54 226 0.0 0.0 0.00 0.00 0.00 89 1015.0
20260510092337 55 222 1.0 1.0 0.00 0.00 0.00 89 1014.9
20260510091832 55 207 0.0 0.0 0.00 0.00 0.00 89 1014.8
20260510091330 55 223 0.0 0.0 0.00 0.00 0.00 89 1014.6
20260510090826 54 223 0.0 1.0 0.00 0.00 0.00 89 1014.6
20260510090323 54 223 0.0 0.0 0.00 0.00 0.00 89 1014.6
20260510085818 54 223 0.0 1.0 0.00 0.00 0.00 89 1014.7
20260510085313 54 220 1.0 1.0 0.00 0.00 0.00 88 1014.6
20260510084809 54 212 0.0 1.0 0.00 0.00 0.00 88 1014.4
20260510084306 54 193 3.0 3.0 0.00 0.00 0.00 87 1014.6
20260510083803 54 214 1.0 1.0 0.00 0.00 0.00 88 1014.9
20260510083300 54 206 1.0 1.0 0.00 0.00 0.00 87 1014.7
20260510082755 55 185 1.0 1.0 0.00 0.00 0.00 87 1015.0
20260510082252 54 206 1.0 1.0 0.00 0.00 0.00 87 1014.9
20260510081750 54 215 1.0 1.0 0.00 0.00 0.00 87 1014.8
20260510081247 54 209 1.0 1.0 0.00 0.00 0.00 87 1014.9
20260510080743 55 202 0.0 0.0 0.00 0.00 0.00 86 1014.9
20260510080238 55 213 0.0 0.0 0.00 0.00 0.00 86 1014.9
20260510075736 55 212 1.0 1.0 0.00 0.00 0.00 85 1014.6
20260510075233 55 203 2.0 2.0 0.00 0.00 0.00 84 1014.9
20260510074730 55 208 0.0 1.0 0.00 0.00 0.00 84 1014.7
20260510074226 55 223 1.0 1.0 0.00 0.00 0.00 86 1014.3
20260510073722 55 200 2.0 2.0 0.00 0.00 0.00 85 1014.7
20260510073218 55 218 0.0 0.0 0.00 0.00 0.00 84 1014.7
20260510072714 55 220 0.0 0.0 0.00 0.00 0.00 85 1014.4
20260510072211 56 178 3.0 3.0 0.00 0.00 0.00 83 1014.6
20260510071708 56 195 1.0 2.0 0.00 0.00 0.00 83 1014.8
20260510071205 56 223 0.0 0.0 0.00 0.00 0.00 82 1014.6
20260510070702 56 221 1.0 1.0 0.00 0.00 0.00 82 1014.4
20260510070159 57 196 1.0 2.0 0.00 0.00 0.00 82 1014.8
20260510065655 57 204 1.0 1.0 0.00 0.00 0.00 83 1015.0
20260510065151 57 195 1.0 1.0 0.00 0.00 0.00 84 1014.8
20260510064648 56 225 0.0 1.0 0.00 0.00 0.00 84 1014.8
20260510064144 56 230 1.0 1.0 0.00 0.00 0.00 85 1014.6
20260510063642 56 247 2.0 2.0 0.00 0.00 0.00 84 1014.4
20260510063138 58 223 1.0 1.0 0.00 0.00 0.00 80 1014.3
20260510062634 59 204 0.0 1.0 0.00 0.00 0.00 76 1014.3
20260510062131 59 206 2.0 2.0 0.00 0.00 0.00 76 1014.4
20260510061626 59 185 3.0 3.0 0.00 0.00 0.00 77 1014.1
20260510061124 58 199 2.0 2.0 0.00 0.00 0.00 79 1014.4
20260510060620 57 192 2.0 2.0 0.00 0.00 0.00 80 1014.3
20260510060116 57 199 2.0 2.0 0.00 0.00 0.00 81 1014.4
20260510055612 57 194 2.0 2.0 0.00 0.00 0.00 81 1014.3
20260510055110 57 199 1.0 1.0 0.00 0.00 0.00 82 1014.1
20260510054606 58 195 1.0 1.0 0.00 0.00 0.00 81 1014.0
20260510054101 56 208 1.0 1.0 0.00 0.00 0.00 82 1014.1
20260510053601 56 205 1.0 2.0 0.00 0.00 0.00 84 1014.1
20260510053058 56 204 2.0 2.0 0.00 0.00 0.00 84 1014.2
20260510052554 56 209 0.0 1.0 0.00 0.00 0.00 85 1014.0
20260510052050 56 201 1.0 2.0 0.00 0.00 0.00 84 1013.9
20260510051546 55 206 2.0 2.0 0.00 0.00 0.00 85 1014.2
20260510051043 55 216 1.0 1.0 0.00 0.00 0.00 86 1014.0
20260510050540 55 220 1.0 1.0 0.00 0.00 0.00 86 1014.3
20260510050037 55 212 1.0 1.0 0.00 0.00 0.00 87 1014.3
20260510045534 56 189 3.0 3.0 0.00 0.01 0.01 86 1014.3
20260510045030 55 212 1.0 1.0 0.00 0.01 0.01 87 1014.0
20260510044527 55 222 1.0 1.0 0.00 0.01 0.01 88 1013.8
20260510044025 55 224 1.0 1.0 0.00 0.01 0.01 87 1013.9
20260510043520 55 208 1.0 1.0 0.00 0.01 0.01 87 1013.9
20260510043015 56 232 1.0 2.0 0.00 0.01 0.01 86 1013.5
20260510042510 56 204 0.0 0.0 0.00 0.01 0.01 86 1013.6
20260510042005 56 204 0.0 0.0 0.00 0.01 0.01 86 1013.7
20260510041502 56 204 0.0 0.0 0.00 0.01 0.01 87 1013.7
20260510041000 56 204 0.0 0.0 0.00 0.01 0.01 87 1013.5
20260510040455 56 200 1.0 2.0 0.00 0.01 0.01 86 1013.6
20260510035946 56 191 2.0 2.0 0.00 0.01 0.01 86 1013.8
20260510035442 57 192 2.0 2.0 0.00 0.01 0.01 85 1013.8
20260510034937 57 208 0.0 1.0 0.00 0.01 0.01 86 1013.6
20260510034436 57 208 0.0 1.0 0.00 0.01 0.01 86 1013.6
20260510033932 58 208 1.0 1.0 0.00 0.01 0.01 85 1013.5
20260510033428 57 207 0.0 1.0 0.00 0.01 0.01 83 1013.5
20260510032925 58 206 0.0 0.0 0.00 0.01 0.01 83 1013.5
20260510032422 58 196 1.0 1.0 0.00 0.01 0.01 83 1013.4
20260510031917 58 194 2.0 2.0 0.00 0.01 0.01 83 1013.3
20260510031412 58 205 1.0 1.0 0.00 0.01 0.01 83 1013.3
20260510030907 58 207 0.0 0.0 0.00 0.01 0.01 83 1013.3
20260510030404 59 199 1.0 1.0 0.00 0.01 0.01 82 1013.6
20260510025901 59 198 2.0 2.0 0.00 0.01 0.01 81 1013.2
20260510025359 59 210 1.0 1.0 0.00 0.01 0.01 81 1013.3
20260510024856 60 202 1.0 1.0 0.00 0.01 0.01 81 1013.1
20260510024352 60 204 1.0 1.0 0.00 0.01 0.01 80 1013.2
20260510023848 60 204 0.0 1.0 0.00 0.01 0.01 79 1013.1
20260510023345 60 204 0.0 1.0 0.00 0.01 0.01 80 1012.7
20260510022843 60 204 1.0 1.0 0.00 0.01 0.01 80 1012.8
20260510022341 61 208 0.0 0.0 0.00 0.01 0.01 81 1012.4
20260510021840 61 207 0.0 0.0 0.00 0.01 0.01 79 1012.2
20260510021339 61 205 1.0 1.0 0.00 0.01 0.01 77 1012.3
20260510020835 62 203 1.0 1.0 0.00 0.01 0.01 76 1012.4
20260510020335 63 217 0.0 0.0 0.00 0.01 0.01 75 1012.1
20260510015831 63 219 0.0 0.0 0.00 0.01 0.01 73 1012.1
20260510015327 64 219 0.0 0.0 0.00 0.01 0.01 72 1012.2
20260510014822 64 219 0.0 0.0 0.00 0.01 0.01 72 1012.0
20260510014320 64 219 1.0 1.0 0.00 0.01 0.01 70 1012.0
20260510013816 65 219 1.0 1.0 0.00 0.01 0.01 71 1012.0
20260510013312 66 212 1.0 1.0 0.00 0.01 0.01 68 1011.7
20260510012807 67 217 0.0 1.0 0.00 0.01 0.01 63 1012.0
20260510012307 67 221 1.0 1.0 0.00 0.01 0.01 64 1011.6
20260510011801 67 223 1.0 1.0 0.00 0.01 0.01 63 1011.7
20260510011257 67 225 1.0 1.0 0.00 0.01 0.01 63 1011.4
20260510010754 68 213 1.0 1.0 0.00 0.01 0.01 62 1011.4
20260510010250 68 210 1.0 1.0 0.00 0.01 0.01 59 1011.2
20260510005747 68 223 1.0 1.0 0.00 0.01 0.01 62 1011.2
20260510005244 69 208 2.0 2.0 0.00 0.01 0.01 58 1011.2
20260510004742 70 189 2.0 2.0 0.00 0.01 0.01 56 1011.1
20260510004239 71 217 0.0 1.0 0.00 0.01 0.01 55 1011.0
20260510003736 72 214 1.0 1.0 0.00 0.01 0.01 55 1011.0
20260510003232 73 201 2.0 2.0 0.00 0.01 0.01 52 1010.9
20260510002731 74 207 1.0 2.0 0.00 0.01 0.01 52 1010.9
20260510002229 75 202 2.0 2.0 0.00 0.01 0.01 50 1011.1
20260510001725 76 198 2.0 2.0 0.00 0.01 0.01 47 1010.9
20260510001224 76 213 0.0 0.0 0.00 0.01 0.01 45 1010.8
20260510000720 76 214 0.0 0.0 0.00 0.01 0.01 39 1010.9
20260510000218 77 206 0.0 1.0 0.00 0.01 0.01 39 1011.0
20260509235714 78 212 0.0 1.0 0.00 0.01 0.01 36 1010.9
20260509235210 78 219 0.0 1.0 0.00 0.01 0.01 37 1010.9
20260509234706 80 228 3.0 3.0 0.00 0.01 0.01 37 1011.0
20260509234203 82 190 1.0 2.0 0.00 0.01 0.01 32 1010.9
20260509233702 82 219 1.0 1.0 0.00 0.01 0.01 32 1010.9
20260509233159 81 206 0.0 0.0 0.00 0.01 0.01 31 1010.8
20260509232655 81 252 2.0 2.0 0.00 0.01 0.01 32 1011.0
20260509232152 80 202 1.0 1.0 0.00 0.01 0.01 34 1010.8
20260509231648 81 213 0.0 1.0 0.00 0.01 0.01 31 1011.0
20260509231146 81 221 1.0 1.0 0.00 0.01 0.01 34 1011.0
20260509230643 81 208 1.0 1.0 0.00 0.01 0.01 32 1010.9
20260509230140 81 212 1.0 1.0 0.00 0.01 0.01 30 1011.0
20260509225635 80 221 1.0 1.0 0.00 0.01 0.01 33 1010.8
20260509225131 80 209 0.0 1.0 0.00 0.01 0.01 31 1010.9
20260509224627 81 217 2.0 2.0 0.00 0.01 0.01 30 1010.8
20260509224124 80 198 2.0 2.0 0.00 0.01 0.01 33 1010.8
20260509223621 81 150 2.0 2.0 0.00 0.01 0.01 33 1010.8
20260509223118 81 200 0.0 1.0 0.00 0.01 0.01 32 1011.0
20260509222614 80 205 1.0 2.0 0.00 0.01 0.01 30 1010.9
20260509222110 80 170 3.0 3.0 0.00 0.01 0.01 33 1010.8
20260509221606 81 156 5.0 7.0 0.00 0.01 0.01 31 1010.8
20260509221102 81 210 0.0 0.0 0.00 0.01 0.01 35 1010.6
20260509220558 81 183 0.0 1.0 0.00 0.01 0.01 30 1010.6
20260509220055 81 200 1.0 1.0 0.00 0.01 0.01 33 1010.8
20260509215550 80 209 2.0 3.0 0.00 0.01 0.01 34 1010.7
20260509215048 81 211 3.0 5.0 0.00 0.01 0.01 33 1010.7
20260509214545 80 150 6.0 6.0 0.00 0.01 0.01 31 1010.8
20260509214042 81 176 7.0 7.0 0.00 0.01 0.01 32 1010.7
20260509213538 81 209 1.0 2.0 0.00 0.01 0.01 29 1010.6
20260509213035 82 218 1.0 2.0 0.00 0.01 0.01 29 1010.6
20260509212532 84 221 1.0 2.0 0.00 0.01 0.01 37 1010.7
20260509212029 84 197 1.0 1.0 0.00 0.01 0.01 31 1010.8
20260509211524 84 215 2.0 3.0 0.00 0.01 0.01 31 1010.8
20260509211021 84 216 2.0 2.0 0.00 0.01 0.01 27 1010.7
20260509210518 84 222 2.0 3.0 0.00 0.01 0.01 33 1011.1
20260509210014 83 170 4.0 5.0 0.00 0.01 0.01 28 1011.2
20260509205509 85 224 0.0 1.0 0.00 0.01 0.01 30 1011.3
20260509205005 85 202 0.0 0.0 0.00 0.01 0.01 30 1011.1
20260509204501 85 220 1.0 1.0 0.00 0.01 0.01 30 1011.3
20260509203957 85 233 2.0 2.0 0.00 0.01 0.01 34 1011.0
20260509203453 84 177 1.0 1.0 0.00 0.01 0.01 32 1011.0
20260509202951 84 254 2.0 3.0 0.00 0.01 0.01 26 1011.2
20260509202447 86 223 1.0 2.0 0.00 0.01 0.01 30 1011.4
20260509201942 84 216 1.0 2.0 0.00 0.01 0.01 27 1011.7
20260509201437 85 194 1.0 1.0 0.00 0.01 0.01 28 1011.5
20260509200935 84 216 0.0 1.0 0.00 0.01 0.01 29 1011.7
20260509200434 85 263 1.0 1.0 0.00 0.01 0.01 28 1011.9
20260509195931 84 212 2.0 2.0 0.00 0.01 0.01 31 1011.7
20260509195427 84 47 2.0 3.0 0.00 0.01 0.01 27 1011.7
20260509194926 82 196 2.0 3.0 0.00 0.01 0.01 34 1011.6
20260509194422 81 184 2.0 3.0 0.00 0.01 0.01 30 1011.6
20260509193920 81 202 4.0 5.0 0.00 0.01 0.01 33 1011.6
20260509193419 84 182 7.0 7.0 0.00 0.01 0.01 31 1011.6
20260509192916 84 192 1.0 1.0 0.00 0.01 0.01 31 1011.6
20260509192412 85 153 4.0 6.0 0.00 0.01 0.01 31 1011.6
20260509191907 83 216 1.0 2.0 0.00 0.01 0.01 33 1011.6
20260509191403 82 205 3.0 3.0 0.00 0.01 0.01 36 1011.7
20260509190859 85 175 6.0 8.0 0.00 0.01 0.01 33 1011.7
20260509190356 84 150 2.0 2.0 0.00 0.01 0.01 31 1011.7
20260509185854 83 131 1.0 2.0 0.00 0.01 0.01 30 1011.3
20260509185350 83 184 9.0 10.0 0.00 0.01 0.01 30 1011.4
20260509184847 81 197 2.0 2.0 0.00 0.01 0.01 36 1011.5
20260509184344 84 237 4.0 5.0 0.00 0.01 0.01 32 1011.7
20260509183841 84 197 4.0 6.0 0.00 0.01 0.01 30 1011.7
20260509183336 83 178 1.0 1.0 0.00 0.01 0.01 32 1012.0
20260509182832 82 160 2.0 3.0 0.00 0.01 0.01 34 1011.5
20260509182330 82 84 1.0 1.0 0.00 0.01 0.01 33 1011.7
20260509181827 83 215 1.0 1.0 0.00 0.01 0.01 33 1011.7
20260509181324 82 206 0.0 1.0 0.00 0.01 0.01 34 1011.7
20260509180821 83 21 2.0 2.0 0.00 0.01 0.01 31 1012.0
20260509180317 83 215 0.0 1.0 0.00 0.01 0.01 34 1011.7
20260509175814 82 204 0.0 0.0 0.00 0.01 0.01 32 1011.9
20260509175310 83 142 1.0 1.0 0.00 0.01 0.01 30 1011.7
20260509174806 83 207 1.0 1.0 0.00 0.01 0.01 36 1011.7
20260509174302 82 234 1.0 1.0 0.00 0.01 0.01 33 1011.9
20260509173758 83 230 4.0 6.0 0.00 0.01 0.01 38 1011.9
20260509173254 82 222 2.0 2.0 0.00 0.01 0.01 35 1012.0
20260509172750 81 226 1.0 1.0 0.00 0.01 0.01 40 1012.2
20260509172247 83 121 3.0 5.0 0.00 0.01 0.01 32 1012.2
20260509171742 82 191 4.0 7.0 0.00 0.01 0.01 37 1012.0
20260509171239 80 206 3.0 5.0 0.00 0.01 0.01 42 1012.2
20260509170736 80 217 1.0 2.0 0.00 0.01 0.01 38 1012.0
20260509170232 80 210 3.0 5.0 0.00 0.01 0.01 40 1012.1
20260509165730 80 236 4.0 6.0 0.00 0.01 0.01 39 1012.0
20260509165225 81 214 7.0 9.0 0.00 0.01 0.01 42 1012.0
20260509164722 82 181 1.0 1.0 0.00 0.01 0.01 38 1012.0
20260509164217 82 193 1.0 2.0 0.00 0.01 0.01 39 1011.9
20260509163715 80 150 3.0 3.0 0.00 0.01 0.01 42 1012.1
20260509163212 81 197 0.0 1.0 0.00 0.01 0.01 43 1012.3
20260509162709 79 238 2.0 3.0 0.00 0.01 0.01 45 1012.0
20260509162204 79 224 5.0 7.0 0.00 0.01 0.01 44 1012.1
20260509161700 79 187 3.0 5.0 0.00 0.01 0.01 42 1011.9
20260509161156 79 234 3.0 3.0 0.00 0.01 0.01 41 1012.0
20260509160652 79 164 0.0 1.0 0.00 0.01 0.01 43 1012.1
20260509160148 79 158 0.0 1.0 0.00 0.01 0.01 43 1012.1
20260509155644 78 218 0.0 1.0 0.00 0.01 0.01 48 1012.0
20260509155140 78 204 0.0 0.0 0.00 0.01 0.01 47 1012.1
20260509154636 76 232 1.0 2.0 0.00 0.01 0.01 51 1012.0
20260509154133 78 182 0.0 1.0 0.00 0.01 0.01 47 1012.4
20260509153630 76 215 2.0 2.0 0.00 0.01 0.01 54 1012.0
20260509153127 76 222 1.0 2.0 0.00 0.01 0.01 51 1012.2
20260509152622 77 204 0.0 0.0 0.00 0.01 0.01 50 1012.1
20260509152120 75 214 2.0 2.0 0.00 0.01 0.01 54 1011.9
20260509151616 75 252 1.0 1.0 0.00 0.01 0.01 54 1012.2
20260509151114 74 199 2.0 2.0 0.00 0.01 0.01 58 1012.0
20260509150612 74 185 3.0 5.0 0.00 0.01 0.01 58 1012.0
20260509150110 73 196 0.0 1.0 0.00 0.01 0.01 62 1012.2
20260509145605 72 212 3.0 3.0 0.00 0.01 0.01 61 1012.2
20260509145101 70 214 2.0 2.0 0.00 0.01 0.01 66 1012.0
20260509144558 69 216 1.0 2.0 0.00 0.01 0.01 67 1011.9
20260509144055 69 216 4.0 6.0 0.00 0.01 0.01 69 1011.6
20260509143552 68 171 0.0 1.0 0.00 0.01 0.01 72 1012.1
20260509143050 68 187 0.0 1.0 0.00 0.01 0.01 75 1011.9
20260509142545 67 185 3.0 3.0 0.00 0.01 0.01 76 1011.7
20260509142041 66 198 2.0 2.0 0.00 0.01 0.01 77 1011.9
20260509141537 66 197 2.0 2.0 0.00 0.01 0.01 77 1011.7
20260509141034 65 221 1.0 1.0 0.00 0.01 0.01 79 1011.7
20260509140531 65 212 3.0 3.0 0.00 0.01 0.01 82 1011.7
20260509140029 64 208 0.0 0.0 0.00 0.01 0.01 83 1011.9
20260509135526 64 220 1.0 1.0 0.00 0.01 0.01 85 1011.7
20260509135023 63 251 0.0 1.0 0.00 0.01 0.01 85 1012.0
20260509134520 62 185 2.0 2.0 0.00 0.01 0.01 87 1011.6
20260509134018 62 216 0.0 0.0 0.00 0.01 0.01 90 1011.9
20260509133514 61 205 0.0 0.0 0.00 0.01 0.01 91 1011.9
20260509133012 60 209 0.0 0.0 0.00 0.01 0.01 91 1011.6
20260509132511 60 201 1.0 1.0 0.00 0.01 0.01 93 1011.7
20260509132008 59 202 2.0 2.0 0.00 0.01 0.01 95 1011.6
20260509131504 58 187 3.0 3.0 0.00 0.01 0.01 96 1011.5
20260509131001 58 188 3.0 3.0 0.00 0.01 0.01 98 1011.9
20260509130456 57 181 2.0 2.0 0.00 0.01 0.01 98 1011.4
20260509125954 56 199 1.0 1.0 0.00 0.01 0.01 99 1011.5
20260509125450 55 185 1.0 2.0 0.00 0.01 0.01 99 1011.5
20260509124946 54 206 0.0 0.0 0.00 0.01 0.01 99 1011.7
20260509124443 53 201 1.0 1.0 0.00 0.01 0.01 99 1011.9
20260509123940 52 205 0.0 0.0 0.00 0.01 0.01 99 1011.9
20260509123438 51 204 0.0 0.0 0.00 0.01 0.01 99 1011.5
20260509122933 50 203 1.0 1.0 0.00 0.01 0.01 99 1011.5
20260509122431 50 200 1.0 1.0 0.00 0.01 0.01 99 1011.5
20260509121927 49 189 0.0 1.0 0.00 0.01 0.01 99 1011.2
20260509121424 49 190 0.0 1.0 0.00 0.01 0.01 99 1011.3
20260509120923 49 201 0.0 0.0 0.00 0.01 0.01 99 1011.3